Regional Weather Roundup
Issued by NWS Spokane, WA

Home | Current Version | Previous Version | Text Only | Print | Product List | Glossary On
Versions: 1 2 3 4 5 6 7 8 9 10 11 12 13 14 15 16 17 18 19 20 21 22 23 24 25 26 27 28 29 30 31 32 33 34 35 36 37 38 39 40 41 42 43 44 45 46 47 48 49 50
000
NZUS01 KOTX 300610
RWROTX
EASTERN WASHINGTON/NORTHERN IDAHO ROUNDUP
NATIONAL WEATHER SERVICE, SPOKANE WA
1100 PM PDT WED JUL 29 2015

Note: "fair" indicated few or no clouds below 12,000 feet with no
significant weather and/or obstructions to visibility.

...NORTHEAST WASHINGTON AND NORTHERN IDAHO PANHANDLE...

CITY           SKY/WX    TMP DP  RH WIND       PRES   REMARKS
SPOKANE INTL   CLEAR     74  35  24 CALM      30.14S
SPOKANE DOWNTO CLEAR     66  39  37 NE3       30.13R
COEUR D ALENE  CLEAR     66  45  45 E3        30.14S
DEER PARK      CLEAR     61  36  39 NE3       30.13R
SANDPOINT      CLEAR     57  43  58 CALM      30.13S
BONNERS FERRY  FAIR      64  39  39 NE3       30.14R

...SOUTHEAST WASHINGTON AND SOUTHERN IDAHO PANHANDLE...

CITY           SKY/WX    TMP DP  RH WIND       PRES   REMARKS
WALLA WALLA    CLEAR     76  39  26 E8        30.06S
PULLMAN/MOSCOW CLEAR     57  32  38 CALM      30.18S
LEWISTON       CLEAR     77  31  18 S9        30.09S
LOWELL           N/A     62  50  64 N5        30.18R

...COLUMBIA BASIN...

CITY           SKY/WX    TMP DP  RH WIND       PRES   REMARKS
EPHRATA        CLEAR     71  41  33 N5        30.06S
MOSES LAKE     CLEAR     78  43  28 VRB3      30.06S
TRI CITIES     CLEAR     65  55  70 NE5       30.02S
HERMISTON      CLEAR     68  44  42 S6        30.02S
PENDLETON      CLEAR     72  32  23 SE7       30.08S

...EAST SLOPES CASCADES...

CITY           SKY/WX    TMP DP  RH WIND       PRES   REMARKS
THE DALLES     CLEAR     78  38  23 CALM      30.00R
YAKIMA         CLEAR     66  44  45 W7        30.08R
ELLENSBURG     CLEAR     75  37  25 NW8       30.11R
WENATCHEE      CLEAR     78  40  25 N5        30.07R
OMAK           CLEAR     78  36  21 CALM      30.05R

...SOUTHERN BRITISH COLUMBIA...

CITY           SKY/WX    TMP DP  RH WIND       PRES   REMARKS
PENTICTON      CLEAR     68  39  34 N5        30.08R
CRANBROOK      CLEAR     63  43  48 W6        30.20R

...WESTERN MONTANA...

CITY           SKY/WX    TMP DP  RH WIND       PRES   REMARKS
MISSOULA       CLEAR     61  44  53 CALM      30.22R

...NEIGHBORING CITIES...

CITY           SKY/WX    TMP DP  RH WIND       PRES   REMARKS
SEATTLE        CLEAR     73  49  42 N9        30.10S
CALGARY        PTCLDY    55  46  71 NW5       30.21R



USA.gov is the U.S. government's official web portal to all federal, state and local government web resources and services.